This demonstration page uses our WeatherBlox Daily Observations layout. Learn more.

Left ArrowRight Arrow

Hourly Observations for January 20, 2017

Temp ( °F °C ) Dew Point ( °F °C ) Humidity (%) Winds ( mph kmh ) Pressure ( in mb ) Visibility ( mi km ) Precip ( " mm )
12:58 am 00:58 Mostly Cloudy with Fog 39 4 39 4 100 100 W 3 6 29.62 1003 1 1 0.00 0.00
1:58 am 01:58 Mostly Cloudy with Fog 39 3.7 39 3.7 100 100 Calm 29.62 1003 1 1 0.00 0.00
2:58 am 02:58 Mostly Cloudy with Fog 38 3.1 38 3.1 100 100 Calm 29.62 1003 1 1 0.00 0.00
3:59 am 03:59 Mostly Cloudy with Fog 38 3.1 38 3.1 100 100 Calm 29.60 1002 1 1 0.00 0.00
4:58 am 04:58 Mostly Cloudy with Fog 38 3.1 38 3.1 100 100 ENE 5 7 29.60 1002 1 1 0.00 0.03
5:58 am 05:58 Mostly Cloudy with Mist and Fog 38 3.1 38 3.1 100 100 ENE 5 7 29.57 1001 1 2 0.00 0.00
6:59 am 06:59 Cloudy with Mist and Fog 38 3.2 38 3.2 100 100 SE 5 7 29.59 1002 3 5 0.00 0.00
7:28 am 07:28 Mostly Cloudy with Mist and Fog 37 3 37 3 100 100 E 5 7 29.62 1003 1 2 0.00 0.00
7:58 am 07:58 Mostly Cloudy with Mist and Fog 38 3.3 38 3.3 100 100 SSE 5 7 29.61 1003 1 2 0.00 0.00
8:23 am 08:23 Mostly Cloudy with Fog 37 3 37 3 100 100 ENE 3 6 29.62 1003 1 1 0.00 0.00
8:43 am 08:43 Mostly Cloudy with Mist and Fog 39 4 39 4 100 100 E 3 6 29.62 1003 1 2 0.00 0.00
8:58 am 08:58 Mostly Cloudy with Mist and Fog 39 3.7 39 3.7 100 100 ENE 5 7 29.60 1002 1 2 0.00 0.00
9:51 am 09:51 Mostly Cloudy 39 4 39 4 100 100 ENE 5 7 29.62 1003 5 8 0.00 0.00
9:58 am 09:58 Mostly Cloudy 40 4.3 40 4.3 100 100 ENE 3 6 29.59 1002 7 11 0.00 0.00
10:52 am 10:52 Mostly Cloudy 41 5 41 5 100 100 ESE 6 9 29.59 1002 10 16 0.00 0.00
10:59 am 10:59 Mostly Cloudy 41 5.1 41 5.1 100 100 E 6 9 29.57 1001 10 16 0.00 0.00
11:59 am 11:59 Mostly Cloudy 42 5.4 42 5.4 100 100 SE 5 7 29.56 1001 10 16 0.00 0.00
12:02 pm 12:02 Cloudy 41 5 41 5 100 100 SE 5 7 29.56 1001 10 16 0.00 0.00
12:08 pm 12:08 Cloudy 41 5 41 5 100 100 SE 5 7 29.56 1001 10 16 0.00 0.00
12:56 pm 12:56 Mostly Cloudy 43 6 43 6 100 100 ESE 6 9 29.53 1000 9 14 0.00 0.00
12:59 pm 12:59 Mostly Cloudy 43 6 43 6 100 100 ESE 6 9 29.52 1000 9 14 0.00 0.00
1:05 pm 13:05 Mostly Cloudy 43 6 43 6 100 100 E 5 7 29.53 1000 10 16 0.00 0.00
1:44 pm 13:44 Cloudy 43 6 43 6 100 100 ESE 6 9 29.50 999 10 16 0.00 0.00
1:58 pm 13:58 Cloudy 43 6.3 43 6.3 100 100 E 6 9 29.49 999 10 16 0.00 0.00
2:49 pm 14:49 Cloudy 43 6 43 6 100 100 E 7 11 29.47 998 9 14 0.00 0.00
2:58 pm 14:58 Cloudy 43 6 43 6 100 100 E 7 11 29.48 998 10 16 0.00 0.00
3:54 pm 15:54 Cloudy with Light Rain 43 6 43 6 100 100 E 6 9 29.47 998 9 14 0.00 0.00
3:58 pm 15:58 Cloudy with Light Rain 42 5.8 42 5.8 100 100 E 7 11 29.48 998 8 13 0.00 0.03
4:34 pm 16:34 Cloudy with Drizzle 43 6 43 6 100 100 E 6 9 29.47 998 10 16 0.00 0.00
4:42 pm 16:42 Cloudy 43 6 43 6 100 100 E 5 7 29.47 998 9 14 0.00 0.00
4:58 pm 16:58 Cloudy 42 5.6 42 5.6 100 100 E 6 9 29.48 998 9 14 0.01 0.25
5:16 pm 17:16 Cloudy 41 5 41 5 100 100 E 5 7 29.47 998 10 16 0.00 0.00
5:31 pm 17:31 Cloudy with Drizzle 41 5 41 5 100 100 ENE 5 7 29.47 998 9 14 0.00 0.00
5:55 pm 17:55 Cloudy with Light Rain 41 5 41 5 100 100 E 6 9 29.47 998 6 10 0.00 0.00
5:58 pm 17:58 Cloudy with Light Rain 42 5.3 42 5.3 100 100 E 6 9 29.48 998 7 11 0.00 0.03
6:10 pm 18:10 Cloudy with Light Rain 41 5 41 5 100 100 E 8 13 29.47 998 6 10 0.00 0.00
6:19 pm 18:19 Cloudy with Light Rain 41 5 41 5 100 100 E 8 13 29.47 998 6 10 0.00 0.00
6:28 pm 18:28 Cloudy with Drizzle 41 5 41 5 100 100 E 7 11 29.47 998 10 16 0.00 0.00
6:39 pm 18:39 Cloudy 41 5 41 5 100 100 E 9 15 29.47 998 7 11 0.00 0.00
6:42 pm 18:42 Cloudy with Light Rain 41 5 41 5 100 100 E 8 13 29.47 998 8 13 0.00 0.00
6:54 pm 18:54 Cloudy with Drizzle 41 5 41 5 100 100 E 6 9 29.47 998 10 16 0.00 0.00
6:58 pm 18:58 Cloudy with Drizzle 41 5 41 5 100 100 E 7 11 29.47 998 10 16 0.00 0.00
6:59 pm 18:59 Cloudy 41 5 41 5 100 100 E 7 11 29.47 998 10 16 0.00 0.00
7:08 pm 19:08 Cloudy 41 5 41 5 100 100 E 7 11 29.47 998 10 16 0.00 0.00
7:20 pm 19:20 Cloudy 41 5 41 5 100 100 E 7 11 29.47 998 10 16 0.00 0.00
7:35 pm 19:35 Cloudy 41 5 41 5 100 100 E 6 9 29.47 998 10 16 0.00 0.00
7:50 pm 19:50 Partly Cloudy 41 5 41 5 100 100 E 5 7 29.47 998 8 13 0.00 0.00
7:58 pm 19:58 Cloudy 41 5.1 41 5.1 100 100 ESE 6 9 29.48 998 7 11 0.00 0.03
8:01 pm 20:01 Partly Cloudy 41 5 41 5 100 100 ESE 6 9 29.47 998 7 11 0.00 0.00
8:22 pm 20:22 Cloudy with Light Rain 41 5 41 5 100 100 ESE 7 11 29.47 998 6 10 0.00 0.00
8:33 pm 20:33 Cloudy with Mist and Fog 41 5 41 5 100 100 E 7 11 29.47 998 4 6 0.00 0.00
8:50 pm 20:50 Cloudy with Mist and Fog 41 5 41 5 100 100 E 3 6 29.47 998 2 3 0.00 0.00
8:53 pm 20:53 Cloudy with Mist and Fog 41 5 41 5 100 100 E 3 6 29.47 998 2 3 0.00 0.00
8:56 pm 20:56 Cloudy with Mist and Fog 41 5 41 5 100 100 E 3 6 29.47 998 2 2 0.00 0.00
8:57 pm 20:57 Cloudy with Mist and Fog 41 5 41 5 100 100 E 5 7 29.47 998 1 2 0.00 0.00
8:58 pm 20:58 Cloudy with Mist and Fog 41 5 41 5 100 100 E 5 7 29.47 998 1 2 0.00 0.03
9:01 pm 21:01 Cloudy with Mist and Fog 41 5 41 5 100 100 E 5 7 29.47 998 1 2 0.00 0.00
9:04 pm 21:04 Cloudy with Mist and Fog 41 5 41 5 100 100 E 6 9 29.47 998 1 2 0.00 0.00
9:07 pm 21:07 Cloudy with Mist and Fog 41 5 41 5 100 100 E 7 11 29.47 998 1 1 0.00 0.00
9:10 pm 21:10 Cloudy with Mist and Fog 41 5 41 5 100 100 E 7 11 29.47 998 1 1 0.00 0.00
9:13 pm 21:13 Cloudy with Fog 41 5 41 5 100 100 E 7 11 29.47 998 1 1 0.00 0.00
9:16 pm 21:16 Cloudy with Fog 41 5 41 5 100 100 E 7 11 29.47 998 1 1 0.00 0.00
9:19 pm 21:19 Cloudy with Fog 41 5 41 5 100 100 E 7 11 29.47 998 1 1 0.00 0.00
9:22 pm 21:22 Mostly Cloudy with Fog 41 5 41 5 100 100 E 7 11 29.47 998 1 1 0.00 0.00
9:53 pm 21:53 Cloudy with Mist and Fog 41 5 41 5 100 100 E 6 9 29.44 997 1 1 0.00 0.00
9:58 pm 21:58 Cloudy with Mist and Fog 41 5 41 5 100 100 ENE 6 9 29.45 997 1 1 0.00 0.00
10:02 pm 22:02 Cloudy with Mist and Fog 41 5 41 5 100 100 E 5 7 29.44 997 1 2 0.00 0.00
10:19 pm 22:19 Cloudy with Mist and Fog 41 5 41 5 100 100 ESE 7 11 29.44 997 1 2 0.00 0.00
10:35 pm 22:35 Cloudy with Light Rain 41 5 41 5 100 100 ESE 7 11 29.44 997 1 1 0.00 0.00
10:38 pm 22:38 Cloudy with Light Rain 41 5 41 5 100 100 ESE 7 11 29.44 997 1 1 0.00 0.00
10:45 pm 22:45 Cloudy with Light Rain 41 5 41 5 100 100 ESE 6 9 29.44 997 1 1 0.00 0.00
10:58 pm 22:58 Cloudy with Light Rain 41 5 41 5 100 100 E 6 9 29.44 997 1 1 0.00 0.03
11:58 pm 23:58 Cloudy with Light Rain 41 5 41 5 100 100 E 3 6 29.41 996 1 1 0.01 0.25

Powered by AerisWeather